This demonstration page uses our WeatherBlox Daily Observations layout. Learn more.

Left ArrowRight Arrow

31.84235, -102.49876

Hourly Observations for May 19, 2017

Temp ( °F °C ) Dew Point ( °F °C ) Humidity (%) Winds ( mph kmh ) Pressure ( in mb ) Visibility ( mi km ) Precip ( " mm )
12:53 am 00:53 Clear 71 21.7 26 -3.3 19 19 SE 6 9 29.62 1003 10 16 0.00 0.00
1:53 am 01:53 Mostly Cloudy 71 21.7 28 -2.2 20 20 E 7 11 29.62 1003 10 16 0.00 0.00
2:53 am 02:53 Cloudy with Thunderstorms 74 23.3 27 -2.8 17 17 NNE 8 13 29.57 1001 10 16 0.00 0.00
3:28 am 03:28 Cloudy with Thunderstorms 59 15 47 8.3 64 64 NNW 20 31 29.68 1005 10 16 0.00 0.03
3:46 am 03:46 Cloudy with Nearby Thunderstorms 63 17.2 46 7.8 54 54 N 13 20 29.65 1004 10 16 0.00 0.03
3:53 am 03:53 Mostly Cloudy with Thunderstorms 69 20.6 41 5 36 36 N 15 24 29.57 1001 10 16 0.00 0.03
4:07 am 04:07 Mostly Cloudy 68 20 43 6.1 40 40 N 8 13 29.59 1002 10 16 0.00 0.00
4:35 am 04:35 Mostly Cloudy with Nearby Thunderstorms 68 20 44 6.7 42 42 N 8 13 29.59 1002 10 16 0.00 0.00
4:53 am 04:53 Cloudy with Thunderstorms 69 20.6 44 6.7 41 41 NW 7 11 29.59 1002 10 16 0.00 0.00
5:53 am 05:53 Cloudy with Thunderstorms 64 17.8 53 11.7 68 68 SSW 17 28 29.63 1003 7 11 0.12 3.05
6:39 am 06:39 Mostly Cloudy with Nearby Thunderstorms 61 16.1 56 13.3 84 84 NE 6 9 29.71 1006 10 16 0.04 1.02
6:50 am 06:50 Mostly Cloudy 61 16 55 13 83 83 NE 7 11 29.71 1006 10 16 0.04 1.02
6:53 am 06:53 Mostly Cloudy 62 16.7 57 13.9 84 84 ENE 6 9 29.62 1003 10 16 0.04 1.02
7:53 am 07:53 Sunny 62 16.7 57 13.9 84 84 NW 6 9 29.65 1004 9 14 0.00 0.00
8:42 am 08:42 Mostly Sunny 67 19.4 57 13.9 71 71 W 6 9 29.71 1006 10 16 0.00 0.00
8:53 am 08:53 Sunny 69 20.6 58 14.4 68 68 WNW 6 9 29.65 1004 10 16 0.00 0.00
9:53 am 09:53 Sunny 74 23.3 55 12.8 52 52 WNW 6 9 29.66 1005 10 16 0.00 0.00
10:53 am 10:53 Sunny 82 27.8 40 4.4 22 22 WNW 12 19 29.66 1004 10 16 0.00 0.00
11:53 am 11:53 Sunny 84 28.9 34 1.1 17 17 WNW 15 24 29.67 1005 10 16 0.00 0.00
12:53 pm 12:53 Sunny 85 29.4 32 0 15 15 WNW 15 24 29.66 1004 10 16 0.00 0.00
1:53 pm 13:53 Sunny 86 30 32 0 14 14 W 15 24 29.65 1004 10 16 0.00 0.00
2:42 pm 14:42 Mostly Sunny 87 30.6 30 -1.1 13 13 WNW 9 15 29.59 1002 10 16 0.00 0.00
2:53 pm 14:53 Sunny 88 31.1 30 -1.1 12 12 NW 10 17 29.64 1004 10 16 0.00 0.00
3:53 pm 15:53 Sunny 88 31.1 27 -2.8 11 11 WSW 10 17 29.63 1003 10 16 0.00 0.00
4:53 pm 16:53 Sunny 90 32.2 29 -1.7 11 11 WNW 14 22 29.60 1003 10 16 0.00 0.00
5:53 pm 17:53 Sunny 89 31.7 26 -3.3 10 10 W 16 26 29.61 1003 10 16 0.00 0.00
6:53 pm 18:53 Sunny 88 31.1 24 -4.4 10 10 W 17 28 29.62 1003 10 16 0.00 0.00
7:53 pm 19:53 Sunny 86 30 25 -3.9 11 11 W 13 20 29.63 1003 10 16 0.00 0.00
8:53 pm 20:53 Clear 81 27.2 26 -3.3 13 13 undefined N/A 29.65 1004 10 16 0.00 0.00
9:53 pm 21:53 Clear 77 25 20 -6.7 12 12 WNW 13 20 29.68 1005 10 16 0.00 0.00
10:53 pm 22:53 Clear 76 24.4 17 -8.3 11 11 NW 18 30 29.67 1005 10 16 0.00 0.00
11:53 pm 23:53 Clear 74 23.3 23 -5 15 15 N 22 35 29.71 1006 10 16 0.00 0.00

Powered by AerisWeather